Other Surface Observations
Issued by NWS

Home | Current Version | Previous Version | Text Only | Print | Product List | Glossary On
Versions: 1 2 3 4 5 6 7 8 9 10 11 12 13 14 15 16 17 18 19 20 21 22 23 24 25 26 27 28 29 30 31 32 33 34 35 36 37 38 39 40 41 42 43 44 45 46 47 48 49 50
505
SXUS52 KTAE 010018
OSOTAE
OSOTAE
North Florida/South Alabama/Southwest Georgia Weather Roundup
National Weather Service Tallahassee Florida
800 PM EDT SAT APR 30 2016

Note: "fair" indicates few or no clouds below 12,000 feet with no
significant weather and/or obstructions to visibility.

!FLZ017-115-028-034-025-010100
...North Florida...

CITY           SKY/WX    TMP DP  RH WIND       PRES   REMARKS
TALLAHASSEE    CLOUDY    81  68  64 S6        29.93R
APALACHICOLA   CLOUDY    77  74  90 S6        29.93R
PERRY          CLOUDY    78  71  79 SW5       29.96R
CROSS CITY       N/A     80  67  64 CALM      29.94R
JACKSONVILLE   MOCLDY    77  69  76 SE12      29.97R
$$

!FLZ112-006-005-002-011-010100
...Florida Panhandle...

CITY           SKY/WX    TMP DP  RH WIND       PRES   REMARKS
MARIANNA       CLOUDY    81  66  60 S8        29.92R
BONIFAY        NOT AVBL
PANAMA CITY NW FAIR      78  71  79 SE7       29.92R
TYNDALL AFB    CLOUDY    78  72  83 SE9       29.92S
TYND DRONE APT MOCLDY    77  73  87 S8        29.93R
DE FUNIAK SPR    N/A     76  68  75 CALM      29.94R
EGLIN AFB      CLOUDY    77  70  80 SE6       29.92R
DESTIN         MOCLDY    78  73  84 SE8       29.92R
HURLBURT       MOCLDY    76  69  78 SE6       29.92R
CRESTVIEW      CLOUDY    78  68  71 S5        29.94R
PENSACOLA      CLOUDY    76  71  85 SE7       29.93R
$$

!ALZ063-066-010100
...South Alabama...

CITY           SKY/WX    TMP DP  RH WIND       PRES   REMARKS
DOTHAN         CLOUDY    81  64  56 SW8       29.97R
OZARK CAIRNS   MOCLDY    80  66  61 SW7       29.93R
FT RUCKER HELI CLOUDY    81  64  56 SW7       29.92R
RUCKER HELI 3  MOCLDY    80  65  59 SW5       29.95R
RUCKER HELI 2  NOT AVBL
FLORALA APT    NOT AVBL
ANDALUSIA      MOCLDY    80  66  62 CALM      29.93R HAZE
TROY           MOCLDY    80  70  71 SW3       29.94R
EUFALA         FAIR      80  69  69 W3        29.92R
MOBILE         CLOUDY    76  74  93 SE8       29.92R
$$

!GAZ120>161-010100
...Southwest and South Central Georgia...

CITY           SKY/WX    TMP DP  RH WIND       PRES   REMARKS
THOMASVILLE    FAIR      81  66  61 SW7       29.95R
BAINBRIDGE     CLOUDY    82  66  57 S8        29.93R
MOODY AFB      LGT RAIN  71  67  87 E5        29.96S
VALDOSTA       CLOUDY    71  69  93 CALM      29.95R
MOULTRIE       PTCLDY    82  66  57 CALM      29.95R
BLAKELY        CLOUDY    81  72  74 CALM      29.93R
ALBANY         CLOUDY    83  65  54 SW5       29.94R
TIFTON         MOCLDY    75  67  77 NE6       29.95R THUNDER
FITZGERALD     TSTM      73  66  79 E5G18     29.98R
CORDELE        FAIR      78  71  78 SE6       29.94R
AMERICUS       FAIR      75  68  78 CALM      29.95R
HOMERVILLE     TSTM      72  70  94 W8        30.01R
$$

!GMZ750-755-770-775-010100
...Coastal and Buoy Obs...

STATION/POSITION TIME  TEMP    WIND        PRES    VSBY  WAVE
                       AIR SEA DIR/SP/G                  HT/PER
                 (UTC) (F)     (DEG/KT/KT) (MB)    (MI)  (FT/S)
KEATON BEACH     0000   77     250/  6/  7 1013.8R
CEDAR KEY        0000   78     300/  4/  5 1014.1R
C TOWER          0000   75     150/ 10/ 11 1014.0R
APALACHICOLA BUO 2350   76 75  160/  8/ 10 1013.0R         4/ 6
PANAMA CITY BUOY 2350   79 78  150/ 14/ 17 1012.5R         5/ 6
MOBILE BUOY      0000   75 74   90/  2/  4 1012.5R
ORANGE BCH AL BU 2350   75 74   70/  6/  6 1012.2R         4/ 7
$$




USA.gov is the U.S. government's official web portal to all federal, state and local government web resources and services.